EW9372 Weather Reports


time (UTC)temp
C
wind
direction
speed
KPH
gust
KPH
rain 1hr
cm
rain 24hr
cm
rain mn
cm
humidity
%
barometer
mb
20260506032626 16 168 1.6 6.4 0.00 0.00 0.00 75 1014.8
20260506031625 16 184 1.6 6.4 0.00 0.00 0.00 74 1014.7
20260506031126 16 167 1.6 6.4 0.00 0.00 0.00 74 1014.7
20260506030620 16 184 1.6 4.8 0.00 0.00 0.00 74 1014.6
20260506030120 16 200 1.6 6.4 0.00 0.00 0.00 73 1014.7
20260506025622 16 186 1.6 6.4 0.00 0.00 0.00 73 1014.5
20260506025617 16 184 1.6 6.4 0.00 0.00 0.00 73 1014.6
20260506024620 17 190 1.6 6.4 0.00 0.00 0.00 72 1014.3
20260506024116 17 171 1.6 8.0 0.00 0.00 0.00 72 1014.3
20260506023604 17 228 1.6 8.0 0.00 0.00 0.00 72 1014.3
20260506023103 17 205 3.2 8.0 0.00 0.00 0.00 72 1014.3
20260506023059 17 176 1.6 6.4 0.00 0.00 0.00 72 1014.3
20260506022057 17 207 1.6 8.0 0.00 0.00 0.00 71 1014.1
20260506021601 17 187 3.2 6.4 0.00 0.00 0.00 70 1014.0
20260506021556 17 192 1.6 6.4 0.00 0.00 0.00 71 1014.0
20260506020557 17 195 1.6 8.0 0.00 0.00 0.00 70 1014.0
20260506020056 17 192 1.6 8.0 0.00 0.00 0.00 70 1014.0
20260506015557 17 201 1.6 8.0 0.00 0.00 0.00 69 1014.0
20260506015034 17 173 3.2 1.6 0.00 0.00 0.00 69 1013.9
20260506015028 17 216 1.6 4.8 0.00 0.00 0.00 69 1014.0
20260506013021 17 184 1.6 8.0 0.00 0.00 0.00 69 1013.9
20260506012530 17 196 1.6 6.4 0.00 0.00 0.00 68 1013.7
20260506012522 17 140 1.6 8.0 0.00 0.00 0.00 68 1013.8
20260506012022 17 144 1.6 6.4 0.00 0.00 0.00 69 1013.7
20260506011020 17 169 0.0 3.2 0.00 0.00 0.00 70 1014.0
20260506010520 17 144 0.0 3.2 0.00 0.00 0.00 69 1014.0
20260506010014 17 146 1.6 1.6 0.00 0.00 0.00 68 1014.0
20260506004711 18 155 1.6 3.2 0.00 0.00 0.00 68 1014.0
20260506004208 18 158 1.6 0.0 0.00 0.00 0.00 67 1013.8
20260506004203 18 141 1.6 4.8 0.00 0.00 0.00 68 1013.8
20260506003655 18 187 1.6 4.8 0.00 0.00 0.00 67 1013.7
20260506002151 18 153 1.6 6.4 0.00 0.00 0.00 66 1013.7
20260506001153 18 158 0.0 4.8 0.00 0.00 0.00 65 1013.7
20260506000648 18 131 0.0 1.6 0.00 0.00 0.00 65 1013.7
20260506000149 18 174 0.0 0.0 0.00 0.00 0.00 66 1013.7
20260505235632 18 178 0.0 3.2 0.00 0.00 0.00 66 1013.7
20260505235625 18 152 0.0 4.8 0.00 0.00 0.00 67 1013.6
20260505234623 18 124 0.0 4.8 0.00 0.00 0.00 67 1013.7
20260505234124 18 100 0.0 3.2 0.00 0.00 0.00 66 1013.6
20260505233620 18 161 0.0 3.2 0.00 0.00 0.00 66 1013.6
20260505233115 18 169 0.0 3.2 0.00 0.00 0.00 65 1013.6
20260505232609 18 173 0.0 6.4 0.00 0.00 0.00 64 1013.6
20260505232106 18 81 0.0 6.4 0.00 0.00 0.00 64 1013.6
20260505231600 18 84 0.0 3.2 0.00 0.00 0.00 65 1013.6
20260505231018 18 51 1.6 0.0 0.00 0.00 0.00 64 1013.7
20260505225804 18 221 0.0 0.0 0.00 0.00 0.00 64 1013.8
20260505225300 18 222 0.0 3.2 0.00 0.00 0.00 64 1013.8
20260505224758 18 224 0.0 3.2 0.00 0.00 0.00 64 1013.8
20260505224242 18 144 0.0 0.0 0.00 0.00 0.00 64 1013.8
20260505223742 18 144 0.0 0.0 0.00 0.00 0.00 66 1014.0
20260505223234 18 142 0.0 0.0 0.00 0.00 0.00 65 1013.9
20260505222730 18 186 0.0 0.0 0.00 0.00 0.00 66 1014.0
20260505222219 18 186 0.0 0.0 0.00 0.00 0.00 66 1014.1
20260505221704 18 186 0.0 0.0 0.00 0.00 0.00 65 1014.1
20260505221156 18 186 0.0 0.0 0.00 0.00 0.00 66 1014.1
20260505220644 18 180 0.0 3.2 0.00 0.00 0.00 66 1014.0
20260505220144 18 178 0.0 4.8 0.00 0.00 0.00 67 1014.1
20260505215839 18 153 0.0 8.0 0.00 0.00 0.00 67 1014.2
20260505215629 18 178 1.6 4.8 0.00 0.00 0.00 65 1014.1
20260505215612 18 242 3.2 8.0 0.00 0.00 0.00 67 1014.3
20260505215320 18 180 1.6 4.8 0.00 0.00 0.00 67 1014.1
20260505214318 18 145 1.6 8.0 0.00 0.00 0.00 66 1014.2
20260505213041 18 213 3.2 9.7 0.00 0.00 0.00 66 1014.4
20260505212542 18 217 3.2 9.7 0.00 0.00 0.00 67 1014.4
20260505212034 18 226 3.2 9.7 0.00 0.00 0.00 65 1014.4
20260505211534 18 243 3.2 6.4 0.00 0.00 0.00 65 1014.3
20260505210648 18 235 3.2 0.0 0.00 0.00 0.00 66 1014.4
20260505204524 17 227 3.2 11.3 0.00 0.00 0.00 69 1014.3
20260505204026 17 243 3.2 4.8 0.00 0.00 0.00 70 1014.3
20260505202821 18 249 6.4 16.1 0.00 0.00 0.00 66 1014.5
20260505202320 18 235 4.8 14.5 0.00 0.00 0.00 65 1014.5
20260505201823 19 355 4.8 8.0 0.00 0.00 0.00 63 1014.5
20260505201818 19 224 3.2 4.8 0.00 0.00 0.00 61 1014.5
20260505195707 19 231 3.2 8.0 0.00 0.00 0.00 66 1014.6
20260505195209 19 193 1.6 8.0 0.00 0.00 0.00 66 1014.6
20260505194716 18 234 1.6 6.4 0.00 0.00 0.00 69 1014.6
20260505194202 17 233 3.2 6.4 0.00 0.00 0.00 72 1014.5
20260505193655 17 236 3.2 6.4 0.00 0.00 0.00 69 1014.5
20260505193151 16 229 1.6 6.4 0.00 0.00 0.00 71 1014.5
20260505192651 16 242 1.6 6.4 0.00 0.00 0.00 76 1014.5
20260505192149 16 238 3.2 8.0 0.00 0.00 0.00 74 1014.5
20260505191649 16 250 3.2 8.0 0.00 0.00 0.00 76 1014.5
20260505191150 16 230 1.6 8.0 0.00 0.00 0.00 76 1014.4
20260505190649 15 234 0.0 8.0 0.00 0.00 0.00 76 1014.5
20260505190146 16 235 0.0 4.8 0.00 0.00 0.00 72 1014.4
20260505185642 16 235 0.0 1.6 0.00 0.00 0.00 76 1014.4
20260505184510 15 241 1.6 6.4 0.00 0.00 0.00 78 1014.4
20260505184009 15 231 1.6 8.0 0.00 0.00 0.00 78 1014.4
20260505184001 15 232 3.2 8.0 0.00 0.00 0.00 76 1014.4
20260505182955 15 210 3.2 6.4 0.00 0.00 0.00 77 1014.4
20260505181832 15 231 0.0 8.0 0.00 0.00 0.00 79 1014.3
20260505181331 15 238 0.0 4.8 0.00 0.00 0.00 80 1014.2
20260505181323 15 248 0.0 6.4 0.00 0.00 0.00 80 1014.1
20260505181031 15 238 1.6 6.4 0.00 0.00 0.00 77 1014.2
20260505175820 15 248 1.6 6.4 0.00 0.00 0.00 81 1014.1
20260505175310 14 236 1.6 8.0 0.00 0.00 0.00 82 1014.1
20260505175306 15 249 1.6 8.0 0.00 0.00 0.00 82 1014.1
20260505174307 14 227 1.6 6.4 0.00 0.00 0.00 83 1014.0
20260505173800 14 230 3.2 8.0 0.00 0.00 0.00 85 1014.0
20260505173251 14 232 1.6 8.0 0.00 0.00 0.00 86 1014.0
20260505172750 13 215 1.6 6.4 0.00 0.00 0.00 90 1014.0
20260505172241 13 161 1.6 6.4 0.00 0.00 0.00 91 1013.9
20260505171730 13 218 1.6 6.4 0.00 0.00 0.00 91 1013.9
20260505171226 13 246 1.6 3.2 0.00 0.00 0.00 91 1013.9
20260505165826 12 224 1.6 6.4 0.00 0.00 0.00 92 1013.9
20260505165822 12 225 1.6 6.4 0.00 0.00 0.00 91 1013.9
20260505165550 12 227 1.6 1.6 0.00 0.00 0.00 91 1013.8
20260505164820 12 223 1.6 6.4 0.00 0.00 0.00 92 1013.9
20260505163120 12 201 1.6 4.8 0.00 0.00 0.00 92 1013.8
20260505162620 12 223 1.6 4.8 0.00 0.00 0.00 91 1013.8
20260505162612 12 207 3.2 6.4 0.00 0.00 0.00 92 1013.7
20260505162322 12 225 3.2 6.4 0.00 0.00 0.00 91 1013.7
20260505161109 11 191 3.2 6.4 0.00 0.00 0.00 92 1013.6
20260505160600 11 192 3.2 8.0 0.00 0.00 0.00 91 1013.6
20260505152445 11 186 1.6 6.4 0.00 0.00 0.00 92 1013.6
20260505151940 11 179 1.6 6.4 0.00 0.00 0.00 91 1013.5
20260505151438 11 185 1.6 6.4 0.00 0.00 0.00 91 1013.5
20260505150933 11 191 1.6 6.4 0.00 0.00 0.00 91 1013.4
20260505150430 11 181 1.6 6.4 0.00 0.00 0.00 91 1013.5
20260505140542 10 175 3.2 4.8 0.00 0.00 0.00 91 1013.0
20260505124835 10 200 3.2 8.0 0.00 0.00 0.00 91 1012.5
20260505124335 10 200 3.2 6.4 0.00 0.00 0.00 91 1012.5
20260505123835 10 200 3.2 8.0 0.00 0.00 0.00 91 1012.5
20260505123338 10 185 3.2 9.7 0.00 0.00 0.00 91 1012.5
20260505122836 10 202 3.2 9.7 0.00 0.00 0.00 91 1012.5
20260505122331 10 211 4.8 9.7 0.00 0.00 0.00 91 1012.3
20260505121831 10 201 3.2 8.0 0.00 0.00 0.00 91 1012.3
20260505121329 10 207 3.2 4.8 0.00 0.00 0.00 91 1012.2
20260505120140 10 186 4.8 9.7 0.00 0.00 0.00 91 1012.2
20260505115634 10 183 4.8 9.7 0.00 0.00 0.00 91 1012.3
20260505115138 10 204 3.2 9.7 0.00 0.00 0.00 91 1012.5
20260505115134 10 184 3.2 8.0 0.00 0.00 0.00 91 1012.3
20260505114125 10 227 3.2 9.7 0.00 0.00 0.00 91 1012.6
20260505113626 11 226 3.2 6.4 0.00 0.00 0.00 91 1012.6
20260505113125 11 228 3.2 9.7 0.00 0.00 0.00 91 1012.7
20260505112626 11 202 3.2 9.7 0.00 0.00 0.00 91 1012.7
20260505112124 11 209 3.2 6.4 0.00 0.00 0.00 91 1012.6
20260505111622 11 183 1.6 6.4 0.00 0.00 0.00 91 1012.7
20260505111124 11 187 1.6 6.4 0.00 0.00 0.00 91 1012.7
20260505110622 11 194 3.2 6.4 0.00 0.00 0.00 91 1012.5
20260505110127 11 184 3.2 9.7 0.00 0.00 0.00 91 1012.5
20260505110123 11 217 3.2 6.4 0.00 0.00 0.00 91 1012.5
20260505102122 11 213 3.2 1.6 0.00 0.00 0.00 91 1012.6
20260505101042 11 236 3.2 1.6 0.00 0.00 0.00 91 1012.6
20260505095437 11 213 3.2 6.4 0.00 0.00 0.00 91 1012.5
20260505094934 11 193 3.2 6.4 0.00 0.00 0.00 91 1012.5
20260505094428 11 185 3.2 6.4 0.00 0.00 0.00 91 1012.5
20260505093930 11 170 1.6 6.4 0.00 0.00 0.00 91 1012.6
20260505093431 11 125 0.0 1.6 0.00 0.00 0.00 91 1012.6
20260505092930 11 124 0.0 3.2 0.00 0.00 0.00 91 1012.9
20260505092429 11 121 1.6 3.2 0.00 0.00 0.00 91 1013.0
20260505091929 11 159 0.0 3.2 0.00 0.00 0.00 91 1012.8
20260505091423 11 153 0.0 1.6 0.00 0.00 0.00 91 1012.9
20260505090922 11 153 0.0 3.2 0.00 0.00 0.00 91 1012.9
20260505090419 11 153 0.0 3.2 0.00 0.00 0.00 91 1013.1
20260505085916 11 154 0.0 3.2 0.00 0.00 0.00 91 1013.1
20260505085414 11 152 0.0 3.2 0.00 0.00 0.00 91 1013.2
20260505084906 11 148 0.0 3.2 0.00 0.00 0.00 91 1013.1
20260505084359 11 142 0.0 0.0 0.00 0.00 0.00 91 1013.3
20260505082902 11 147 0.0 3.2 0.00 0.00 0.00 91 1013.3
20260505082858 11 148 0.0 3.2 0.00 0.00 0.00 91 1013.3
20260505081901 11 149 0.0 0.0 0.00 0.00 0.00 91 1013.5
20260505080740 11 142 0.0 3.2 0.00 0.00 0.00 91 1013.3
20260505080229 11 141 0.0 1.6 0.00 0.00 0.00 91 1013.2
20260505075729 11 141 0.0 1.6 0.00 0.00 0.00 91 1013.2
20260505075206 11 141 0.0 1.6 0.00 0.00 0.00 91 1013.2
20260505074702 11 140 0.0 3.2 0.00 0.00 0.00 91 1013.2
20260505074131 11 140 0.0 1.6 0.00 0.00 0.00 91 1013.3
20260505074127 11 140 0.0 3.2 0.00 0.00 0.00 91 1013.3
20260505073111 11 140 0.0 1.6 0.00 0.00 0.00 91 1013.3
20260505072612 11 141 0.0 1.6 0.00 0.00 0.00 91 1013.3
20260505072108 11 141 0.0 1.6 0.00 0.00 0.00 91 1013.4
20260505071600 11 141 0.0 0.0 0.00 0.00 0.00 91 1013.4
20260505070122 11 141 0.0 1.6 0.05 0.13 0.00 91 1013.5
20260505070117 11 141 0.0 0.0 0.08 0.13 2.29 91 1013.4
20260505065532 11 141 0.0 0.0 0.08 0.13 2.29 91 1013.3
20260505065016 11 141 0.0 0.0 0.08 0.10 2.26 91 1013.5
20260505064005 11 141 0.0 0.0 0.10 0.10 2.26 91 1013.6
20260505063508 10 141 0.0 0.0 0.10 0.10 2.26 91 1013.6
20260505062934 10 141 0.0 1.6 0.10 0.10 2.26 91 1013.5
20260505062421 11 141 0.0 1.6 0.10 0.10 2.26 91 1013.6
20260505061920 11 141 0.0 3.2 0.10 0.10 2.26 91 1013.7
20260505061433 11 143 0.0 4.8 0.08 0.08 2.24 91 1013.3
20260505061420 11 142 0.0 4.8 0.10 0.10 2.26 91 1013.5
20260505060421 11 134 0.0 1.6 0.08 0.08 2.24 91 1013.5
20260505055921 11 132 0.0 1.6 0.05 0.05 2.21 91 1013.4
20260505055423 11 132 0.0 1.6 0.05 0.05 2.21 91 1013.3
20260505055418 11 132 0.0 1.6 0.03 0.03 2.18 91 1013.1
20260505054404 11 132 0.0 0.0 0.00 0.00 2.11 91 1013.2
20260505053406 11 167 0.0 0.0 0.00 0.00 2.03 91 1013.3
20260505052858 11 102 0.0 3.2 0.03 0.03 2.08 91 1013.5
20260505050812 11 171 0.0 1.6 0.10 0.61 2.01 91 1013.3
20260505050308 11 141 0.0 3.2 0.15 0.58 1.98 91 1013.4
20260505041643 11 150 0.0 3.2 0.56 0.56 1.96 91 1013.6
20260505041144 11 155 0.0 3.2 0.51 0.51 1.93 91 1013.5
20260505041138 11 140 0.0 1.6 0.46 0.46 1.88 91 1013.6
20260505040134 11 140 0.0 3.2 0.41 0.41 1.80 91 1013.6
20260505035638 11 140 1.6 4.8 0.23 0.23 1.65 91 1013.7
20260505035633 11 141 0.0 4.8 0.30 0.30 1.70 91 1013.6
20260505034631 11 102 0.0 4.8 0.18 0.18 1.60 91 1013.8
20260505034132 11 145 0.0 4.8 0.15 0.15 1.55 91 1013.7
20260505033629 11 167 0.0 4.8 0.10 0.10 1.50 91 1013.8
20260505033129 11 96 0.0 1.6 0.05 0.05 1.45 91 1013.6